CAPE
0 0 0 0 0 0 0 0 0 0 0 0 0 0 0 0 0 0 0 0 0 0 0 0 0 0 0 0 0 0 0 0 0 0 0 0 0 0 0 0 0 30 1427 1180 138
0 0 0 0 0 0 0 0 0 0 0 0 0 0 0 0 0 0 0 0 0 0 0 0 0 0 0 0 0 0 0 0 0 0 0 0 0 0 0 0 0 0 18 667 435
0 0 0 0 0 0 0 0 0 0 0 0 0 0 0 0 0 0 0 0 0 0 0 0 0 0 0 0 0 0 0 0 0 0 0 0 0 0 0 0 0 0 0 0 60
0 0 0 0 0 0 0 0 0 0 0 0 0 0 0 0 0 0 0 0 0 0 0 0 0 0 0 0 0 0 0 0 0 0 0 0 0 0 0 0 0 0 0 0 0
0 0 0 0 0 0 0 0 0 0 0 0 0 0 0 0 0 0 0 0 0 0 0 0 0 0 0 0 0 0 0 0 0 0 0 0 0 0 0 0 0 0 0 0 0
0 0 0 0 0 0 0 0 0 0 0 0 0 0 0 0 0 0 0 0 0 0 0 0 0 0 0 0 0 0 0 0 0 0 0 0 0 0 0 0 0 0 0 0 0
0 0 0 0 0 0 0 0 0 0 0 0 0 0 0 0 0 0 0 0 0 0 0 0 0 0 0 0 0 0 0 0 0 0 0 0 0 0 0 0 0 0 0 0 0
0 0 0 0 0 0 0 0 0 0 0 0 0 0 0 0 0 0 0 0 0 0 0 0 0 0 0 0 0 0 0 0 0 0 0 0 0 0 0 0 0 0 0 0 0
0 0 0 0 0 0 0 0 0 0 0 0 0 0 0 0 0 0 0 0 0 0 0 0 0 0 0 0 0 0 0 0 0 0 0 0 0 0 0 0 0 0 0 0 0
0 0 0 0 0 0 0 0 0 0 0 0 0 0 0 0 0 0 0 0 0 0 0 0 0 0 0 0 0 0 0 0 0 0 0 0 0 0 0 0 0 0 0 0 0
0 0 0 0 0 0 0 0 0 0 0 0 0 0 0 0 0 0 0 0 0 0 0 0 0 0 0 0 0 0 0 0 0 0 0 0 0 0 0 0 0 0 0 0 0
0 0 0 0 0 0 0 0 0 0 0 0 0 0 0 0 0 0 0 0 0 0 0 0 0 0 0 0 0 0 0 0 0 0 0 0 0 0 0 0 0 0 0 0 0
0 0 0 0 0 0 0 0 0 0 0 0 0 0 0 0 0 0 0 0 0 0 0 0 0 0 0 0 0 0 0 0 0 0 0 0 0 0 0 0 0 0 0 0 0
0 0 0 0 0 0 0 0 0 0 0 0 0 0 0 0 0 0 0 0 0 0 0 0 0 0 0 0 0 0 0 0 0 0 0 0 0 0 0 0 0 0 0 0 0
0 0 0 0 0 0 0 0 0 0 0 0 0 0 0 0 0 0 0 0 0 0 0 0 0 0 0 0 0 0 0 0 0 0 0 0 0 0 0 0 0 0 0 0 0
0 0 0 0 0 0 0 0 0 0 0 0 0 0 0 0 0 0 0 0 0 0 0 0 0 0 0 0 0 0 0 0 0 0 0 0 0 0 0 0 0 0 0 0 0
0 0 0 0 0 0 0 0 0 0 0 0 0 0 0 0 0 0 0 0 0 0 0 0 0 0 0 0 0 0 0 0 0 0 0 0 0 0 0 0 0 0 0 0 0
0 0 0 0 0 0 0 0 0 0 0 0 0 0 0 0 0 0 0 11 0 0 0 0 0 1 1 0 0 0 8 1 0 0 0 0 0 0 0 0 0 46 0 0 0
0 0 0 0 0 0 0 0 0 0 0 0 0 0 0 0 0 0 0 0 1 0 0 0 0 0 0 0 0 0 0 0 0 9 0 0 0 0 4 3 2 0 0 0 0
0 0 0 0 0 0 0 0 0 0 0 0 0 0 0 0 0 0 1 11 0 0 0 0 0 0 0 0 0 0 0 0 0 0 0 0 0 0 0 0 0 0 0 0 0
0 0 0 0 0 0 0 0 0 0 0 0 0 0 0 0 0 0 0 0 0 0 0 0 0 0 0 0 0 0 0 0 0 0 4 0 0 0 20 0 0 0 0 0 0
0 0 0 0 0 0 0 0 0 0 0 0 0 0 0 0 0 0 0 0 0 0 0 0 0 0 0 0 0 0 0 0 0 0 0 11 0 0 0 0 0 0 0 0 0
0 0 0 0 0 0 0 0 0 0 0 0 0 0 0 0 0 0 0 0 0 0 0 0 0 0 0 0 0 0 0 0 0 0 0 0 0 0 0 0 0 0 0 0 0
0 0 0 0 0 0 0 0 0 0 0 0 0 0 0 0 0 0 0 0 0 0 0 0 0 0 0 0 0 0 0 0 0 0 0 0 0 0 0 0 0 0 0 0 0
0 0 0 0 0 0 0 0 0 0 0 0 0 0 0 0 0 0 0 0 0 0 0 0 0 0 0 0 0 0 0 0 0 0 0 0 0 0 0 0 0 0 0 0 0
0 0 0 0 0 0 0 0 0 0 0 0 0 0 0 0 0 0 0 0 0 0 0 0 0 0 0 0 0 0 0 0 0 0 0 1 0 0 0 0 0 0 10 12 0
0 0 0 0 0 0 0 0 0 0 0 0 0 0 0 0 0 0 0 0 0 0 0 0 0 0 0 0 0 0 0 0 0 7 18 1 0 0 0 0 0 0 0 10 1
CIN
0 0 0 0 0 0 0 0 0 0 0 0 0 0 0 0 0 0 0 0 0 0 0 0 0 0 0 0 0 0 0 0 0 0 0 0 0 0 0 0 0 -74 -28 -89 -277
0 0 0 0 0 0 0 0 0 0 0 0 0 0 0 0 0 0 0 0 0 0 0 0 0 0 0 0 0 0 0 0 0 0 0 0 0 0 0 0 0 0 -8 -81 -185
0 0 0 0 0 0 0 0 0 0 0 0 0 0 0 0 0 0 0 0 0 0 0 0 0 0 0 0 0 0 0 0 0 0 0 0 0 0 0 0 0 0 0 0 -34
0 0 0 0 0 0 0 0 0 0 0 0 0 0 0 0 0 0 0 0 0 0 0 0 0 0 0 0 0 0 0 0 0 0 0 0 0 0 0 0 0 0 0 0 0
0 0 0 0 0 0 0 0 0 0 0 0 0 0 0 0 0 0 0 0 0 0 0 0 0 0 0 0 0 0 0 0 0 0 0 0 0 0 0 0 0 0 0 0 0
0 0 0 0 0 0 0 0 0 0 0 0 0 0 0 0 0 0 0 0 0 0 0 0 0 0 0 0 0 0 0 0 0 0 0 0 0 0 0 0 0 0 0 0 0
0 0 0 0 0 0 0 0 0 0 0 0 0 0 0 0 0 0 0 0 0 0 0 0 0 0 0 0 0 0 0 0 0 0 0 0 0 0 0 0 0 0 0 0 0
0 0 0 0 0 0 0 0 0 0 0 0 0 0 0 0 0 0 0 0 0 0 0 0 0 0 0 0 0 0 0 0 0 0 0 0 0 0 0 0 0 0 0 0 0
0 0 0 0 0 0 0 0 0 0 0 0 0 0 0 0 0 0 0 0 0 0 0 0 0 0 0 0 0 0 0 0 0 0 0 0 0 0 0 0 0 0 0 0 0
0 0 0 0 0 0 0 0 0 0 0 0 0 0 0 0 0 0 0 0 0 0 0 0 0 0 0 0 0 0 0 0 0 0 0 0 0 0 0 0 0 0 0 0 0
0 0 0 0 0 0 0 0 0 0 0 0 0 0 0 0 0 0 0 0 0 0 0 0 0 0 0 0 0 0 0 0 0 0 0 0 0 0 0 0 0 0 0 0 0
0 0 0 0 0 0 0 0 0 0 0 0 0 0 0 0 0 0 0 0 0 0 0 0 0 0 0 0 0 0 0 0 0 0 0 0 0 0 0 0 0 0 0 0 0
0 0 0 0 0 0 0 0 0 0 0 0 0 0 0 0 0 0 0 0 0 0 0 0 0 0 0 0 0 0 0 0 0 0 0 0 0 0 0 0 0 0 0 0 0
0 0 0 0 0 0 0 0 0 0 0 0 0 0 0 0 0 0 0 0 0 0 0 0 0 0 0 0 0 0 0 0 0 0 0 0 0 0 0 0 0 0 0 0 0
0 0 0 0 0 0 0 0 0 0 0 0 0 0 0 0 0 0 0 0 0 0 0 0 0 0 0 0 0 0 0 0 0 0 0 0 0 0 0 0 0 0 0 0 0
0 0 0 0 0 0 0 0 0 0 0 0 0 0 0 0 0 0 0 0 0 0 0 0 0 0 0 0 0 0 0 0 0 0 0 0 0 0 0 0 0 0 0 0 0
0 0 0 0 0 0 0 0 0 0 0 -0 0 0 0 0 0 0 0 0 0 0 0 0 0 0 0 0 0 0 0 0 0 0 0 0 0 0 0 -9 0 0 0 0 0
0 0 0 0 0 0 0 0 0 0 0 0 0 0 0 0 0 0 -2 -7 0 0 0 0 0 -8 -1 -5 0 0 -20 -22 -13 0 0 0 0 0 0 0 0 -67 -78 0 0
0 0 0 0 0 0 0 0 0 0 0 0 0 0 0 0 0 0 -1 -2 -3 0 0 0 0 0 0 0 0 0 0 0 0 -2 0 0 0 0 -18 -50 -90 -15 0 0 0
0 0 0 0 0 0 0 0 0 0 0 0 0 0 0 0 0 0 -15 -30 0 0 0 0 0 0 0 0 0 0 0 0 0 0 0 0 0 0 0 0 0 0 0 0 0
0 0 0 0 0 0 0 0 0 0 0 0 0 0 0 0 0 0 0 0 0 0 0 0 0 0 0 0 0 0 0 0 0 0 -21 0 0 0 -127 0 0 0 0 0 0
0 0 0 0 0 0 0 0 0 0 0 0 0 0 0 0 0 0 0 0 0 0 0 0 0 0 0 0 0 0 0 0 0 0 -1 -4 0 0 -10 0 0 0 0 0 0
0 0 0 0 0 0 0 0 0 0 0 0 0 0 0 0 0 0 0 0 0 0 0 0 0 0 0 0 0 0 0 0 0 0 0 0 0 0 0 0 0 0 0 0 0
0 0 0 0 0 0 0 0 0 0 0 0 0 0 0 0 0 0 0 0 0 0 0 0 0 0 0 0 0 0 0 0 0 0 0 0 0 0 0 0 0 0 0 0 0
0 0 0 0 0 0 0 0 0 0 0 0 0 0 0 0 0 0 0 0 0 0 0 0 0 0 0 0 0 0 0 0 0 0 0 0 0 0 0 0 0 0 0 0 0
0 0 0 0 0 0 0 0 0 0 0 0 0 0 0 0 0 0 0 0 0 0 0 0 0 0 0 0 0 0 0 0 0 0 -0 -11 0 0 0 0 0 0 -64 -117 0
0 0 0 0 0 0 0 0 0 0 0 0 0 0 0 0 0 0 0 0 0 0 0 0 0 0 0 0 0 0 0 0 0 -19 -23 -15 -18 0 0 0 0 0 0 -106 -64
Wind_Speed
23 23 22 22 22 21 21 20 18 17 16 15 16 17 19 19 19 15 20 11 10 12 14 16 19 23 25 26 30 11 24 29 30 23 29 14 19 20 15 18 15 16 13 9 10
24 24 24 23 23 22 22 21 21 20 19 19 19 19 20 22 22 21 17 10 11 11 13 18 21 16 6 23 23 19 32 34 28 26 26 20 19 20 18 21 13 11 12 11 8
26 25 24 24 24 23 23 22 21 21 21 21 22 23 23 23 21 16 9 8 10 10 16 22 23 25 3 26 27 31 30 34 35 34 25 22 20 18 16 20 19 16 7 5 5
26 25 24 24 23 22 22 21 21 20 20 23 24 25 25 19 18 15 10 9 10 12 17 19 20 22 16 26 29 24 7 21 34 30 24 25 27 24 19 21 21 22 6 5 5
27 26 25 24 23 21 20 20 19 17 14 20 25 25 22 17 16 9 8 11 11 12 14 19 25 21 22 25 30 20 32 28 35 26 26 25 29 29 29 25 24 18 12 10 11
28 28 27 26 25 24 23 22 21 19 9 17 22 24 18 16 14 7 7 9 8 10 18 20 22 27 25 27 30 28 21 24 29 25 22 28 30 31 33 30 31 27 14 12 13
30 29 27 27 25 24 23 21 19 14 4 15 19 20 17 2 8 8 7 5 6 6 21 19 25 22 26 27 25 29 30 29 30 25 22 21 28 24 28 32 28 29 18 20 16
31 29 28 27 26 25 23 21 11 12 10 12 15 16 13 7 6 2 5 4 6 16 19 23 23 23 23 26 28 29 25 30 30 31 25 21 32 29 29 27 27 23 19 20 20
32 32 31 31 29 27 25 17 9 14 13 14 14 13 9 14 3 2 2 4 7 9 15 16 21 20 23 23 24 24 23 24 29 19 22 16 26 26 30 33 21 20 21 24 22
34 33 33 32 31 30 25 6 11 13 12 12 10 12 7 9 5 3 5 7 14 10 14 12 16 16 18 19 21 23 25 26 31 32 16 16 21 22 25 24 14 17 18 18 18
37 36 35 33 32 31 25 18 19 16 8 7 6 5 14 5 13 6 3 2 11 14 15 13 15 18 14 12 18 24 30 31 31 27 19 16 22 19 21 26 25 23 23 20 20
39 38 37 35 33 30 17 17 24 23 20 7 10 14 11 7 9 7 8 10 11 13 10 14 15 9 17 20 25 30 31 31 32 29 28 28 30 26 21 22 24 31 34 26 22
42 41 41 37 34 20 17 17 27 29 24 21 9 7 8 11 9 5 4 9 13 11 13 14 18 12 22 22 25 28 30 28 28 31 32 33 38 36 33 30 27 25 24 26 23
44 44 42 40 21 25 21 28 29 28 25 22 12 8 9 9 8 6 3 5 9 13 21 23 24 27 29 21 25 30 27 28 30 29 32 29 43 38 33 40 38 36 22 21 18
46 45 42 32 23 21 29 30 26 21 27 13 10 11 9 7 12 6 3 6 7 15 19 21 25 28 30 22 19 25 26 28 31 35 38 35 36 42 33 36 38 39 32 22 19
48 44 40 21 19 19 28 27 21 20 21 13 12 13 9 10 19 10 6 10 15 19 24 31 34 33 33 35 32 30 32 33 32 34 40 33 30 46 32 29 29 35 44 15 15
48 45 34 18 19 29 28 21 19 18 19 21 19 13 9 14 13 13 8 8 12 20 23 27 25 25 24 26 26 27 28 35 36 32 39 33 29 32 31 34 39 29 32 13 8
47 40 19 14 18 27 24 17 20 16 20 22 20 23 21 24 29 30 25 16 12 18 24 24 25 26 26 24 25 26 25 29 34 34 47 40 36 34 35 38 35 21 28 22 16
46 25 17 16 17 21 19 17 19 19 19 22 25 19 24 28 26 32 24 23 26 24 26 31 30 34 29 29 28 29 31 32 37 32 42 43 46 44 31 30 32 30 28 28 28
35 23 17 21 22 18 17 17 21 19 23 23 20 22 25 32 31 29 25 23 24 25 25 29 36 27 33 35 28 34 34 36 34 41 44 42 43 36 28 30 32 32 32 30 28
23 20 18 23 17 15 17 17 18 20 22 22 21 24 28 31 32 30 25 28 26 28 27 29 29 34 33 30 37 40 37 34 35 34 41 53 42 26 26 32 34 34 33 31 32
25 20 22 25 17 13 16 18 18 21 23 22 22 24 25 29 28 27 26 27 28 28 28 27 32 40 41 36 36 40 41 35 36 40 37 39 53 36 32 37 39 42 37 34 31
29 19 17 24 19 19 21 20 20 19 22 22 22 25 27 27 26 24 27 27 27 27 26 28 30 39 39 32 27 29 31 34 35 31 39 42 47 45 50 48 39 38 40 39 38
24 22 22 20 19 22 24 22 22 17 20 19 24 24 24 26 25 25 28 26 30 22 22 24 26 29 36 37 39 43 40 38 35 40 44 44 51 50 46 45 45 41 41 40 37
20 22 24 23 27 29 26 26 26 25 18 22 22 24 26 27 29 30 31 33 33 30 30 29 33 31 32 33 36 41 41 41 42 42 43 52 48 46 40 41 43 44 43 45 41
24 25 26 30 29 27 26 24 25 24 24 26 29 29 28 28 28 33 31 30 28 30 31 29 34 37 39 36 39 45 39 40 41 41 39 38 44 39 43 42 44 43 40 40 39
26 28 24 24 26 29 29 24 25 27 26 22 30 29 28 28 27 29 30 30 28 29 30 31 31 34 38 35 38 41 34 33 34 32 32 39 37 37 42 43 43 41 39 38 37
Wind_Direction
329 325 321 316 312 306 298 287 276 265 254 248 253 266 278 277 270 334 239 174 50 10 323 270 189 198 216 244 225 184 267 253 243 278 303 313 302 298 317 308 346 357 32 89 94
328 323 319 316 311 306 299 291 284 279 273 269 269 275 282 294 293 232 183 43 22 7 305 253 215 149 90 249 262 192 244 238 247 288 311 298 300 299 301 293 320 352 19 69 87
326 322 318 314 309 302 296 288 282 276 275 279 283 290 290 298 303 303 93 59 16 351 289 246 233 246 19 214 206 228 255 234 247 266 300 300 289 317 304 300 297 308 316 329 324
322 318 314 311 305 298 290 281 271 263 263 280 292 294 290 333 331 354 58 31 1 326 300 290 280 276 298 268 226 278 206 204 242 284 300 289 289 289 305 292 299 325 310 331 336
319 315 311 308 302 295 288 275 259 241 226 259 312 315 328 335 324 15 20 0 346 332 322 303 276 296 293 283 268 288 269 283 270 292 294 297 285 283 284 295 300 321 328 318 320
317 314 310 306 302 296 290 280 266 246 192 358 339 329 343 335 351 67 31 3 348 340 316 311 302 297 297 289 289 289 295 296 284 295 300 289 288 287 282 291 286 295 305 306 305
317 313 307 303 299 293 287 276 257 224 78 358 344 342 342 13 30 55 43 26 7 354 315 314 308 308 301 294 299 295 292 291 289 298 299 296 290 292 292 284 284 284 298 297 303
317 312 307 302 297 292 285 272 233 16 19 9 358 356 352 17 164 125 74 25 358 326 315 308 317 306 303 299 294 296 298 290 291 285 288 290 285 290 288 288 283 286 288 296 297
317 315 311 306 299 293 284 258 35 11 8 359 356 359 7 352 14 101 106 5 358 347 335 329 322 310 300 301 299 300 295 296 295 300 290 274 289 298 288 286 277 283 290 293 292
317 314 311 308 303 297 283 41 31 20 18 9 356 6 24 10 34 42 343 344 321 336 334 333 328 318 307 303 297 298 298 299 296 306 282 272 285 296 295 300 284 283 287 288 288
318 316 311 307 304 305 350 13 14 15 29 10 12 359 346 35 359 358 27 335 321 318 316 322 314 307 308 300 304 303 302 300 299 309 309 283 291 294 296 290 294 292 288 281 284
319 316 313 307 305 313 14 9 354 350 342 312 243 229 226 209 339 343 342 318 316 311 316 315 305 306 312 310 307 300 301 301 297 298 304 299 293 296 295 293 294 293 289 287 281
320 317 314 308 302 360 3 354 343 341 335 330 261 240 215 214 231 304 298 302 303 305 308 303 308 311 307 305 305 301 300 304 301 298 295 300 291 293 298 299 297 294 290 289 282
320 318 317 315 348 344 350 340 338 342 335 336 354 357 340 346 313 282 270 302 298 299 298 300 303 302 301 307 309 301 304 302 303 304 297 305 291 294 301 295 297 299 282 275 269
319 318 318 332 340 343 340 336 339 348 331 3 2 13 0 351 4 354 238 287 289 303 301 300 301 300 300 309 314 304 306 305 304 298 296 295 297 292 304 301 299 299 299 276 258
318 316 324 351 349 349 337 337 345 341 334 339 339 328 328 319 315 356 348 306 308 301 299 294 290 293 295 295 299 303 301 300 300 300 289 298 297 285 305 310 313 311 309 270 258
316 311 326 352 349 334 337 343 341 334 340 345 342 342 327 321 317 319 319 310 304 309 302 300 298 297 300 303 305 301 299 295 293 294 289 298 296 294 311 311 313 313 316 332 286
314 306 352 3 354 337 339 345 326 335 334 337 338 327 315 309 301 296 300 302 299 299 299 298 297 301 306 317 316 311 308 298 296 295 288 292 292 295 309 314 318 321 311 312 317
321 344 350 0 358 347 347 334 337 337 336 325 316 317 311 305 314 308 295 303 305 321 306 302 295 296 307 312 316 307 300 308 301 305 293 289 287 291 311 322 319 309 311 310 315
337 347 351 347 349 353 344 335 328 338 330 328 322 315 309 295 301 310 308 316 313 327 323 308 299 306 302 306 307 305 308 300 301 294 291 291 293 303 322 322 321 315 308 314 309
352 348 353 345 357 351 335 335 340 352 344 335 327 317 309 300 296 297 303 304 327 318 323 316 304 302 309 305 302 299 300 302 304 298 293 288 291 306 319 326 317 315 315 309 309
347 340 348 341 342 346 340 337 338 332 334 333 327 322 314 305 300 299 299 302 319 325 315 318 307 299 301 306 302 297 295 301 296 294 295 291 285 301 306 311 312 304 310 306 310
337 340 350 343 336 336 337 333 331 335 335 331 322 317 313 310 311 307 306 308 319 321 318 320 310 305 306 311 313 308 304 306 305 302 292 290 287 301 299 298 308 303 295 292 298
338 333 334 339 351 335 327 329 330 341 335 338 326 322 318 313 312 308 308 313 318 328 329 326 311 307 302 303 305 300 302 304 303 295 295 291 296 298 303 303 302 304 304 295 294
342 330 334 320 318 320 321 317 318 319 338 334 327 323 321 316 311 307 311 311 311 313 316 316 306 307 306 307 305 303 303 303 299 298 296 295 297 300 307 308 307 305 304 298 293
338 331 324 312 316 317 319 319 316 320 326 322 319 316 316 314 313 312 315 315 314 315 314 315 305 307 303 307 305 301 306 305 302 301 302 302 299 309 306 308 307 309 309 306 305
334 332 328 321 317 314 318 321 316 317 321 324 321 320 318 318 321 317 315 313 311 310 309 309 309 309 306 310 309 305 311 308 306 312 314 305 307 311 309 310 308 307 310 308 305